[[[{"header":{"parameterUnit":"kt","parameterCategory":2,"dx":1,"dy":1,"la1":30.253999710083008,"la2":30.299108505249023,"lo1":-89.0895004272461,"lo2":-89.04439544677734,"nx":28,"ny":28,"refTime":"2022-10-10T21:00:00:Z","depth":0,"parameterNumber":1,"parameterNumberName":"U-component_of_WINDS"},"data":[-6.6523,-6.6718,-6.6706,-6.6924,-6.695,-6.7098,-6.7147,-6.7209,-6.7256,-6.7431,-6.753,-6.7538,-6.758,-6.7696,-6.7803,-6.7804,-6.7853,-6.7932,-6.792,-6.7575,-6.7527,-6.7481,-6.7435,-6.7941,-6.7942,-6.8281,-6.8284,-6.8286,-6.6277,-6.6305,-6.6416,-6.6515,-6.661,-6.6528,-6.66,-6.6686,-6.682,-6.6877,-6.6973,-6.7126,-6.7245,-6.726,-6.7373,-6.7466,-6.7435,-6.7498,-6.7493,-6.7502,-6.7132,-6.7083,-6.7522,-6.7522,-6.7522,-6.7522,-6.7522,-6.7522,-6.5827,-6.5944,-6.5996,-6.6115,-6.6161,-6.6228,-6.6338,-6.6343,-6.6451,-6.6566,-6.6529,-6.668,-6.6736,-6.6864,-6.6904,-6.7023,-6.695,-6.7016,-6.7033,-6.7052,-6.7076,-6.6597,-6.704,-6.7039,-6.7037,-6.7036,-6.7035,0,-6.5494,-6.5476,-6.5579,-6.5681,-6.5767,-6.5844,-6.5912,-6.5979,-6.5933,-6.6025,-6.6156,-6.623,-6.6375,-6.6498,-6.6599,-6.6626,-6.6551,-6.654,-6.6586,-6.661,-6.6619,-6.6621,-6.6023,-6.6528,-6.6523,-6.652,-6.6518,-6.6516,-6.5043,-6.5179,-6.5225,-6.53,-6.5333,-6.5454,-6.5523,-6.5472,-6.5549,-6.5625,-6.5731,-6.5851,-6.5946,-6.6158,-6.6163,-6.6272,-6.6237,-6.6432,-6.6252,-6.6269,-6.6245,-6.624,-6.6255,-6.6469,-6.6475,-6.648,-6.6484,0,-6.4792,-6.4767,-6.4972,-6.5003,-6.5015,-6.5161,-6.5188,-6.5301,-6.5292,-6.5449,-6.5482,-6.5469,-6.5599,-6.5571,-6.5712,-6.5694,-6.5939,-6.5899,-6.5921,-6.5913,-6.6088,-6.6074,-6.6653,-6.6728,-6.6197,-6.6202,-6.6206,0,-6.4399,-6.4578,-6.4532,-6.4652,-6.485,-6.4792,-6.4991,-6.5002,-6.5046,-6.5168,-6.5074,-6.5191,-6.5135,-6.5249,-6.5222,-6.5416,-6.5441,-6.544,-6.5432,-6.5452,-6.5453,-6.5494,-6.5472,-6.5401,-6.5398,-6.5395,-6.5393,0,-6.401,-6.4193,-6.4387,-6.4424,-6.4474,-6.4567,-6.4593,-6.4639,-6.4708,-6.4791,-6.4835,-6.4936,-6.4993,-6.5074,-6.5039,-6.4919,-6.5273,-6.5101,-6.5273,-6.5275,-6.5356,-6.5352,-6.5868,-6.5389,-6.5389,-6.5388,-6.5387,0,-6.369,-6.3773,-6.4057,-6.4096,-6.4146,-6.4273,-6.4369,-6.447,-6.4527,-6.4517,-6.4582,-6.4517,-6.4679,-6.4512,-6.4737,-6.4592,-6.4654,-6.4666,-6.4678,-6.4694,-6.4508,-6.4808,-6.5298,-6.5351,-6.4706,-6.47,-6.4695,0,-6.3255,-6.3532,-6.3483,-6.3753,-6.3877,-6.3764,-6.3904,-6.3955,-6.3954,-6.406,-6.4057,-6.4179,-6.4047,-6.4081,-6.4196,-6.42,-6.4389,-6.4172,-6.4333,-6.4339,-6.4326,-6.4775,-6.4858,-6.5193,-6.4622,-6.4629,-6.4635,0,-6.2913,-6.2968,-6.302,-6.3061,-6.3117,-6.3219,-6.338,-6.3485,-6.3559,-6.3625,-6.376,-6.3927,-6.3836,-6.3892,-6.3848,-6.397,-6.4259,-6.3855,-6.3856,-6.3933,-6.458,-6.4658,-6.4715,-6.4203,-6.4212,-6.4219,-6.4577,0,-6.2443,-6.2576,-6.2712,-6.2802,-6.2875,-6.304,-6.3006,-6.3088,-6.3038,-6.3032,-6.3228,-6.326,-6.3369,-6.3422,-6.3374,-6.3659,-6.3607,-6.3507,-6.3344,-6.3638,-6.3755,-6.3803,-6.3173,-6.3167,-6.3163,-6.316,0,0,-6.2035,-6.2224,-6.2163,-6.2314,-6.2373,-6.2251,-6.2431,-6.2473,-6.2563,-6.2607,-6.2514,-6.2756,-6.2786,-6.3028,-6.3116,-6.3158,-6.3208,-6.3105,-6.3497,-6.3535,-6.357,-6.3696,-6.3746,-6.3152,-6.3151,-6.3149,-6.3148,0,-6.1856,-6.1886,-6.2062,-6.2103,-6.2161,-6.2144,-6.2187,-6.2222,-6.2226,-6.2415,-6.2313,-6.2426,-6.2618,-6.2665,-6.2714,-6.3075,-6.2993,-6.3109,-6.3317,-6.3455,-6.3499,-6.3537,-6.367,-6.3718,-6.3137,-6.3138,-6.3139,0,-6.1517,-6.1542,-6.1622,-6.1745,-6.1782,-6.1911,-6.173,-6.1873,-6.1969,-6.1827,-6.2017,-6.2031,-6.2089,-6.2319,-6.2421,-6.2341,-6.28,-6.2646,-6.2672,-6.2684,-6.2817,-6.2869,-6.2915,-6.2304,-6.2301,-6.2299,0,0,-6.1367,-6.1488,-6.1498,-6.1704,-6.1734,-6.171,-6.1774,-6.173,-6.1784,-6.1806,-6.1821,-6.1878,-6.1989,-6.2064,-6.2166,-6.2422,-6.2432,-6.2545,-6.2584,-6.2617,-6.2646,-6.2787,-6.2839,-6.2288,-6.2288,-6.2288,0,0,-6.1296,-6.1314,-6.1253,-6.1488,-6.1542,-6.1565,-6.1694,-6.162,-6.1708,-6.1685,-6.1618,-6.163,-6.1844,-6.1861,-6.1726,-6.2108,-6.1946,-6.1977,-6.2089,-6.2138,-6.2177,-6.217,-6.1546,0,0,0,0,0,-6.1094,-6.1312,-6.1256,-6.129,-6.1444,-6.1596,-6.1615,-6.1564,-6.1452,-6.1555,-6.1556,-6.1462,-6.1775,-6.1653,-6.1689,-6.1841,-6.2154,-6.2178,-6.22,-6.2404,-6.2456,-6.25,0,0,0,0,0,0,-6.1107,-6.1148,-6.125,-6.1284,-6.1318,-6.1588,-6.1386,-6.1378,-6.1439,-6.1419,-6.1464,-6.1463,-6.1423,-6.1632,-6.1665,-6.181,-6.1535,-6.2163,-6.2184,-6.2202,-6.2422,-6.2464,-6.2501,0,0,0,0,0,-6.1117,-6.115,-6.141,-6.128,-6.131,-6.1294,-6.1377,-6.1369,-6.1416,-6.1417,-6.1412,-6.1372,-6.1429,-6.1453,-6.1651,-6.1797,-6.1512,-6.1524,-6.2177,-6.2193,-6.2207,-6.2443,0,0,0,0,0,0,-6.1124,-6.1144,-6.1415,-6.1422,-6.1193,-6.1278,-6.1289,-6.1362,-6.1408,-6.1406,-6.1319,-6.1303,-6.1435,-6.1452,-6.1472,-6.1795,-6.1493,-6.1506,-6.1514,-6.2189,-6.2201,-6.2212,0,0,0,0,0,0,-6.1126,-6.1151,-6.1419,-6.1312,-6.1306,-6.1263,-6.1274,-6.1433,-6.1411,-6.1308,-6.1295,-6.1312,-6.1407,-6.1454,-6.1468,-6.172,-6.1479,-6.1491,-6.1499,-6.1505,-6.2199,-6.2209,0,0,0,0,0,0,-6.1136,-6.1157,-6.1309,-6.1306,-6.13,-6.1377,-6.1404,-6.1565,-6.1318,-6.1308,-6.1294,-6.1284,-6.1411,-6.1424,-6.1466,-6.1713,-6.1718,-6.1479,-6.1488,-6.1493,-6.1497,0,0,0,0,0,0,0,-6.1144,-6.101,-6.1372,-6.13,-6.1295,-6.1489,-6.1491,-6.1493,-6.1316,-6.1306,-6.1297,-6.1288,-6.141,-6.1423,-6.1437,-6.1707,0,0,-6.1478,-6.1484,0,0,0,0,0,0,0,0,-6.0999,-6.1007,-6.1373,-6.1374,-6.1376,-6.1489,-6.1491,-6.1492,-6.1314,-6.1307,-6.1299,-6.1292,-6.1414,-6.1424,-6.1435,0,0,0,0,0,0,0,0,0,0,0,0,0,0,0,-6.1373,-6.1374,0,-6.1489,-6.1491,-6.1492,-6.1313,-6.1307,-6.1301,-6.1295,-6.1417,-6.1425,-6.1434,0,0,0,0,0,0,0,0,0,0,0,0,0,0,0,0,0,0,0,0,0,0,0,0,0,0,0,0,0,0,0,0,0,0,0,0,0,0,0,0,0,0,0,0,0,0,0,0,0,0,0,0,0,0,0,0,0,0,0,0,0,0,0,0,0,0,0,0,0]}],[{"header":{"parameterUnit":"kt","parameterCategory":2,"dx":1,"dy":1,"la1":30.253999710083008,"la2":30.299108505249023,"lo1":-89.0895004272461,"lo2":-89.04439544677734,"nx":28,"ny":28,"refTime":"2022-10-10T21:00:00:Z","depth":0,"parameterNumber":2,"parameterNumberName":"V-component_of_WINDS"},"data":[-6.5429,-6.5546,-6.5529,-6.5654,-6.5659,-6.5741,-6.5764,-6.5792,-6.581,-6.5903,-6.5954,-6.5947,-6.5955,-6.601,-6.6062,-6.6057,-6.6081,-6.6136,-6.6121,-6.5895,-6.5862,-6.5831,-6.5803,-6.6141,-6.6141,-6.6358,-6.636,-6.6361,-6.5266,-6.5273,-6.5334,-6.5382,-6.5433,-6.5371,-6.5402,-6.5449,-6.5523,-6.5545,-6.5594,-6.5674,-6.5734,-6.5724,-6.5778,-6.5831,-6.5804,-6.5847,-6.5843,-6.5845,-6.5603,-6.5574,-6.5868,-6.5868,-6.5868,-6.5868,-6.5867,-6.5867,-6.4964,-6.5035,-6.5053,-6.5119,-6.5137,-6.5169,-6.5232,-6.5222,-6.528,-6.5336,-6.5302,-6.5385,-6.5402,-6.5457,-6.5471,-6.5534,-6.5482,-6.5523,-6.5533,-6.5545,-6.5561,-6.5253,-6.5541,-6.554,-6.554,-6.5539,-6.5538,0,-6.4737,-6.4718,-6.4775,-6.4828,-6.4874,-6.4912,-6.4944,-6.4982,-6.4932,-6.4982,-6.5052,-6.5089,-6.5161,-6.5224,-6.527,-6.5275,-6.5214,-6.5205,-6.5233,-6.5252,-6.5264,-6.526,-6.4867,-6.5197,-6.5194,-6.5192,-6.519,-6.5189,-6.4432,-6.4516,-6.4526,-6.4569,-6.4582,-6.465,-6.4687,-6.4637,-6.4678,-6.4708,-6.4772,-6.4834,-6.4881,-6.4995,-6.4979,-6.5033,-6.5003,-6.5132,-6.5011,-6.5026,-6.5007,-6.5003,-6.5011,-6.5157,-6.5161,-6.5164,-6.5167,0,-6.4262,-6.4232,-6.4357,-6.4357,-6.436,-6.445,-6.445,-6.4517,-6.4498,-6.4588,-6.4606,-6.4577,-6.4646,-6.461,-6.468,-6.4659,-6.4805,-6.4774,-6.4799,-6.4791,-6.4904,-6.4894,-6.5271,-6.5318,-6.4967,-6.497,-6.4973,0,-6.399,-6.4102,-6.4051,-6.4125,-6.4247,-6.4193,-6.4315,-6.4311,-6.4325,-6.4395,-6.432,-6.4387,-6.4329,-6.4391,-6.4359,-6.4472,-6.4485,-6.4476,-6.4466,-6.4483,-6.4485,-6.4504,-6.4488,-6.444,-6.4438,-6.4437,-6.4435,0,-6.3728,-6.3831,-6.395,-6.3968,-6.398,-6.4037,-6.4044,-6.4058,-6.4094,-6.4135,-6.4157,-6.4208,-6.4236,-6.4276,-6.4236,-6.4155,-6.4372,-6.4253,-6.4363,-6.4364,-6.4413,-6.4411,-6.4753,-6.4433,-6.4432,-6.4432,-6.4431,0,-6.3504,-6.3548,-6.3725,-6.3732,-6.3761,-6.3839,-6.3886,-6.3944,-6.3964,-6.395,-6.3981,-6.3926,-6.4021,-6.3906,-6.4035,-6.3942,-6.3974,-6.3973,-6.398,-6.3987,-6.386,-6.4059,-6.4388,-6.4421,-6.3993,-6.3989,-6.3986,0,-6.3212,-6.3382,-6.3338,-6.3506,-6.358,-6.349,-6.3575,-6.3596,-6.3584,-6.3643,-6.3628,-6.3696,-6.3602,-6.3618,-6.3687,-6.3674,-6.3795,-6.3656,-6.3742,-6.3746,-6.3741,-6.4043,-6.4102,-6.432,-6.3939,-6.3944,-6.3947,0,-6.2982,-6.2995,-6.3029,-6.3047,-6.3067,-6.3127,-6.3225,-6.3281,-6.3323,-6.3354,-6.3434,-6.3527,-6.346,-6.3488,-6.3448,-6.3522,-6.3712,-6.344,-6.3439,-6.3491,-6.3911,-6.3967,-6.4004,-6.3668,-6.3674,-6.3678,-6.391,0,-6.2651,-6.2732,-6.282,-6.2864,-6.2905,-6.3008,-6.297,-6.3018,-6.2976,-6.296,-6.3077,-6.3083,-6.3139,-6.317,-6.3129,-6.331,-6.3274,-6.3202,-6.3087,-6.3285,-6.3361,-6.3391,-6.2978,-6.2975,-6.2972,-6.2969,0,0,-6.238,-6.2495,-6.2442,-6.2536,-6.2567,-6.2472,-6.2586,-6.2605,-6.2646,-6.2669,-6.2605,-6.2739,-6.2747,-6.2892,-6.2951,-6.2973,-6.3002,-6.2934,-6.3191,-6.3216,-6.3239,-6.332,-6.3353,-6.2964,-6.2962,-6.2961,-6.296,0,-6.2251,-6.2264,-6.2377,-6.2395,-6.2419,-6.2397,-6.2424,-6.2431,-6.2426,-6.254,-6.2459,-6.2524,-6.2632,-6.2652,-6.2676,-6.2915,-6.2851,-6.2935,-6.3077,-6.3162,-6.3191,-6.3216,-6.3302,-6.3334,-6.2953,-6.2953,-6.2954,0,-6.2018,-6.2024,-6.2075,-6.2142,-6.2157,-6.2234,-6.2105,-6.2192,-6.2248,-6.2138,-6.2253,-6.2251,-6.2273,-6.2416,-6.2478,-6.2421,-6.2715,-6.2615,-6.2633,-6.2639,-6.2719,-6.2754,-6.2785,-6.2376,-6.2374,-6.2372,0,0,-6.1912,-6.1987,-6.1977,-6.2112,-6.2126,-6.2095,-6.2132,-6.2094,-6.2116,-6.2126,-6.2122,-6.2146,-6.2207,-6.225,-6.2305,-6.2467,-6.2468,-6.2545,-6.2573,-6.2595,-6.2614,-6.2699,-6.2734,-6.2365,-6.2365,-6.2365,0,0,-6.1861,-6.1855,-6.1809,-6.1961,-6.1986,-6.1983,-6.2067,-6.2009,-6.2056,-6.204,-6.1978,-6.1982,-6.2114,-6.2115,-6.2027,-6.2264,-6.2151,-6.2171,-6.2258,-6.2292,-6.2319,-6.2316,-6.1894,0,0,0,0,0,-6.171,-6.1856,-6.1814,-6.1834,-6.1918,-6.2007,-6.2017,-6.197,-6.1891,-6.1958,-6.1946,-6.1874,-6.2054,-6.1975,-6.1994,-6.2094,-6.2275,-6.2291,-6.2306,-6.2456,-6.2492,-6.2522,0,0,0,0,0,0,-6.1718,-6.1742,-6.181,-6.1815,-6.1833,-6.2001,-6.1857,-6.1849,-6.1883,-6.1868,-6.1878,-6.1874,-6.1835,-6.1961,-6.198,-6.2075,-6.1888,-6.2282,-6.2295,-6.2307,-6.2469,-6.2498,-6.2523,0,0,0,0,0,-6.1723,-6.1743,-6.189,-6.1812,-6.1828,-6.1801,-6.1852,-6.1843,-6.1869,-6.185,-6.1843,-6.183,-6.1839,-6.1851,-6.1972,-6.2068,-6.1874,-6.1881,-6.229,-6.2301,-6.231,-6.2483,0,0,0,0,0,0,-6.1727,-6.1735,-6.1892,-6.1895,-6.1754,-6.179,-6.1794,-6.1839,-6.1847,-6.1842,-6.1798,-6.1786,-6.1844,-6.1852,-6.1862,-6.2068,-6.1864,-6.1871,-6.1875,-6.2298,-6.2307,-6.2314,0,0,0,0,0,0,-6.1724,-6.1739,-6.1893,-6.1822,-6.1817,-6.1781,-6.1785,-6.188,-6.1849,-6.1794,-6.1784,-6.1792,-6.1828,-6.1854,-6.1861,-6.2012,-6.1855,-6.1862,-6.1867,-6.187,-6.2305,-6.2312,0,0,0,0,0,0,-6.1729,-6.1741,-6.1821,-6.1817,-6.1812,-6.1842,-6.1864,-6.1952,-6.1789,-6.1795,-6.1773,-6.1766,-6.1832,-6.1838,-6.1861,-6.2009,-6.2011,-6.1856,-6.186,-6.1864,-6.1866,0,0,0,0,0,0,0,-6.1733,-6.1664,-6.1874,-6.1813,-6.1808,-6.1923,-6.1924,-6.1924,-6.1788,-6.1781,-6.1775,-6.1769,-6.1816,-6.1823,-6.1831,-6.2007,0,0,-6.1855,-6.1858,0,0,0,0,0,0,0,0,-6.1657,-6.1662,-6.1874,-6.1875,-6.1876,-6.1923,-6.1924,-6.1924,-6.1787,-6.1781,-6.1776,-6.1771,-6.1818,-6.1824,-6.183,0,0,0,0,0,0,0,0,0,0,0,0,0,0,0,-6.1874,-6.1875,0,-6.1923,-6.1924,-6.1924,-6.1786,-6.1782,-6.1777,-6.1773,-6.182,-6.1825,-6.183,0,0,0,0,0,0,0,0,0,0,0,0,0,0,0,0,0,0,0,0,0,0,0,0,0,0,0,0,0,0,0,0,0,0,0,0,0,0,0,0,0,0,0,0,0,0,0,0,0,0,0,0,0,0,0,0,0,0,0,0,0,0,0,0,0,0,0,0,0]}]]]